Location: Pointed Rock Observatory
(32.4532°N, 111.0636°W)
Time: 11:44:21
(UTC-07:00)

ISS - Visible Passes

Search period start: 22 July 2018 00:00
Search period end: 01 August 2018 00:00
Orbit: 402 x 408 km, 51.6° (Epoch: 22 July)

Date Brightness Start Highest point End Pass type
(mag) Time Alt. Az. Time Alt. Az. Time Alt. Az.
22 Jul -0.5 02:30:42 10° N 02:32:23 13° NNE 02:34:04 10° ENE visible
22 Jul -3.9 04:05:53 10° NW 04:09:07 59° SW 04:12:21 10° SSE visible
22 Jul -0.7 20:43:33 10° W 20:45:52 18° NW 20:48:11 10° N visible
